Lone Rock, WI

9:04 AM CDT on August 29, 2016 (GMT -0500)
Tri-County Regional

Weather History for KLNR - October, 2013

Change the Weather History Date:

Tuesday, October 22, 2013

  Actual Average Record
Temperature  
Mean Temperature 34 °F -  
Max Temperature 46 °F 55 °F 70 °F (2000)
Min Temperature 21 °F 36 °F 21 °F (2013)
Degree Days  
Heating Degree Days 32    
Moisture  
Dew Point 26 °F    
Average Humidity 73    
Maximum Humidity 92    
Minimum Humidity 47    
Precipitation  
Precipitation 0.00 in - - ()
Sea Level Pressure  
Sea Level Pressure 29.97 in    
Wind  
Wind Speed 4 mph (WNW)    
Max Wind Speed 15 mph    
Max Gust Speed -    
Visibility 10 miles    
Events Snow    
Averages and records for this station are not official NWS values.
T = Trace of Precipitation, MM = Missing Value Source: NWS Daily Summary

Daily Weather History Graph

Daily Weather History Graph

Search for Another Location

Airport or City:

Trip Planner

Search our weather history database for the weather conditions in past years. The results will help you decide how hot, cold, wet, or windy it might be!

Date:

Astronomy

Oct. 22, 2013 Rise Set
Actual Time 7:23 AM CDT 6:06 PM CDT
Civil Twilight 6:54 AM CDT 6:35 PM CDT
Nautical Twilight 6:21 AM CDT 7:08 PM CDT
Astronomical Twilight 5:48 AM CDT 7:41 PM CDT
Moon 8:42 PM CDT (10/22) 10:55 AM CDT (10/22)
Length of Visible Light 11h 40m
Length of Day
10h 42m
Waning Gibbous, 86% of the Moon is Illuminated
Oct 22
Waning Gibbous
Oct 26
Last Quarter
Nov 3
New
Nov 9
First Quarter
Nov 17
Full

Hourly Weather History & Observations

Time (CDT) Temp. Windchill Dew Point Humidity Pressure Visibility Wind Dir Wind Speed Gust Speed Precip Events Conditions
12:56 AM 28.9 °F 25.2 °F 23.0 °F 78% 29.97 in 10.0 mi WNW 3.5 mph - N/A   Clear
1:56 AM 26.1 °F 19.4 °F 21.9 °F 84% 29.98 in 10.0 mi SW 5.8 mph - N/A   Clear
2:56 AM 28.0 °F 22.8 °F 24.1 °F 85% 29.98 in 10.0 mi West 4.6 mph - N/A   Clear
3:56 AM 28.0 °F 22.8 °F 24.1 °F 85% 29.98 in 10.0 mi West 4.6 mph - N/A   Clear
4:56 AM 26.1 °F 21.9 °F 23.0 °F 88% 29.98 in 10.0 mi West 3.5 mph - N/A   Clear
5:56 AM 21.0 °F - 19.0 °F 92% 29.98 in 10.0 mi Calm Calm - N/A   Clear
6:56 AM 21.9 °F - 19.0 °F 89% 29.98 in 10.0 mi Calm Calm - N/A   Clear
7:56 AM 21.9 °F - 19.0 °F 89% 29.99 in 10.0 mi Calm Calm - N/A   Clear
8:56 AM 28.0 °F - 25.0 °F 88% 30.00 in 10.0 mi Calm Calm - N/A   Clear
9:56 AM 32.0 °F 28.7 °F 27.0 °F 82% 29.99 in 10.0 mi West 3.5 mph - N/A   Clear
10:56 AM 35.1 °F 31.0 °F 27.0 °F 72% 29.98 in 10.0 mi WSW 4.6 mph - N/A   Clear
11:56 AM 39.0 °F - 28.0 °F 65% 29.96 in 10.0 mi Calm Calm - N/A   Clear
12:56 PM 41.0 °F 38.0 °F 28.9 °F 62% 29.95 in 10.0 mi WNW 4.6 mph - N/A   Clear
1:56 PM 44.1 °F 41.5 °F 30.0 °F 58% 29.93 in 10.0 mi Variable 4.6 mph - N/A   Clear
2:56 PM 45.0 °F 42.6 °F 28.9 °F 53% 29.91 in 10.0 mi WSW 4.6 mph - N/A   Clear
3:56 PM 46.9 °F - 28.9 °F 50% 29.92 in 10.0 mi NW 8.1 mph - N/A   Mostly Cloudy
4:56 PM 46.0 °F - 27.0 °F 47% 29.93 in 10.0 mi Calm Calm - N/A   Overcast
5:56 PM 39.9 °F - 28.9 °F 65% 29.95 in 10.0 mi Calm Calm - N/A   Partly Cloudy
6:56 PM 37.0 °F 33.3 °F 30.0 °F 76% 29.96 in 10.0 mi NW 4.6 mph - N/A   Mostly Cloudy
7:56 PM 42.1 °F 36.1 °F 28.0 °F 58% 29.97 in 10.0 mi NW 10.4 mph - N/A   Overcast
8:56 PM 39.0 °F 30.6 °F 28.0 °F 65% 29.98 in 10.0 mi NNW 15.0 mph - N/A   Mostly Cloudy
9:56 PM 36.0 °F 30.3 °F 27.0 °F 70% 30.00 in 9.0 mi WNW 6.9 mph - 0.00 in Snow Light Snow
10:56 PM 35.1 °F 28.6 °F 27.0 °F 72% 29.99 in 10.0 mi WNW 8.1 mph - 0.00 in   Clear
11:56 PM 33.1 °F 27.7 °F 27.0 °F 78% 29.99 in 10.0 mi WNW 5.8 mph - N/A   Clear